Location: Mount Tamalpais State Park
(37.9108°N, 122.6128°W)
Time: 10:12:17
(UTC-08:00)

Daily predictions for brighter satellites

Satellite Brightness Start Highest point End
(mag) Time Altitude Azimuth Time Altitude Azimuth Time Altitude Azimuth
Cosmos 2333 Rocket 2.3 17:36:51 10° S 17:42:25 66° ESE 17:48:02 10° NNE
CZ-2C R/B 2.6 17:39:58 10° S 17:44:59 82° WSW 17:49:52 10° NNW
Cosmos 2219 Rocket 2.3 17:41:45 10° SSW 17:47:24 87° WNW 17:53:04 10° NNE
Cosmos 2084 3.4 17:43:47 10° SW 17:47:42 70° NW 17:51:30 10° NNE
Cosmos 1626 4.2 17:47:14 10° E 17:47:53 10° E 17:48:33 10° ENE
CENTAUR R/B 3.6 17:44:14 10° WSW 17:50:01 44° NW 17:56:30 10° NNE
AQUARIUS 4.4 17:47:08 10° S 17:51:37 78° WSW 17:56:09 10° NNW
BREEZE-M DEB (TANK) 2.3 17:49:47 10° SW 17:52:35 47° SE 17:54:52 10° ENE
Cosmos 1674 4.1 17:51:04 10° SSW 17:54:42 42° W 17:58:23 10° N
NOSS 0 Rocket 4.0 17:50:21 10° SSW 17:56:34 80° ESE 18:02:47 10° NNE
Cosmos 1634 Rocket 4.0 17:50:27 10° N 17:56:37 69° E 18:02:44 10° SSE
OTV 4 1.0 17:54:52 10° W 17:57:47 55° SSW 18:00:40 10° ESE
IDEFIX/ARIANE 42P 3.3 17:53:05 10° S 17:58:13 61° W 18:03:24 10° NNW
Cosmos 2278 Rocket 2.4 17:53:01 10° NNW 17:58:33 50° ENE 18:04:02 10° SE
Cosmos 1461 4.1 17:55:54 10° SSE 17:59:17 23° ESE 18:02:30 10° ENE
COSMOS 2441 4.3 17:55:11 10° SSE 18:00:02 78° ENE 18:04:54 10° N
Cosmos 2058 3.3 17:58:52 10° SSE 18:02:44 42° E 18:06:37 10° NNE
Atlas Centaur 2 4.4 17:59:54 10° WSW 18:03:19 16° SSW 18:06:20 10° S
Aureole 2 Rocket 3.0 18:01:32 10° S 18:04:59 44° ESE 18:08:46 10° NNE
Cosmos 1726 2.1 18:01:48 10° N 18:05:33 60° E 18:09:15 10° SSE
Cosmos 1340 Rocket 3.4 18:03:05 10° SSE 18:06:41 35° E 18:10:18 10° NNE
Meteor 1-27 4.5 18:04:07 10° N 18:09:46 50° ENE 18:15:25 10° SSE
SL-14 R/B 3.2 18:06:13 10° S 18:10:07 74° E 18:14:05 10° N
Cosmos 1844 4.1 18:05:09 10° NNW 18:10:55 74° WSW 18:16:41 10° SSE
Cosmos 1484 Rocket 2.8 18:10:06 10° SSE 18:14:00 86° ENE 18:18:00 10° N
YAOGAN 1 3.7 18:10:51 10° S 18:15:01 48° W 18:19:14 10° NNW
MONITOR-E 4.4 18:12:36 10° S 18:15:45 76° WSW 18:18:55 10° NNW
Cosmos 1300 2.6 18:12:06 10° N 18:15:57 82° E 18:19:46 10° S
COSMO-SKYMED 1 2.5 18:12:24 10° NNE 18:16:47 82° ESE 18:21:06 10° S
Cosmos 1707 Rocket 4.5 18:13:57 10° NNE 18:17:35 26° ENE 18:21:13 10° SE
Resurs 01 Rocket 3.1 18:18:16 16° ENE 18:18:27 16° ENE 18:21:08 10° NNE
Cosmos 2237 Rocket 2.4 18:15:38 10° SSW 18:21:14 77° WNW 18:26:54 10° NNE
Cosmos 44 3.9 18:17:55 10° SW 18:23:09 62° WNW 18:28:11 10° NNE
Cosmos 1356 Rocket 4.1 18:21:40 10° SSE 18:25:10 30° E 18:27:46 15° NE
ALOS 3.4 18:21:44 10° ESE 18:25:12 21° ENE 18:28:39 10° NNE
Cosmos 1666 Rocket 4.2 18:22:34 10° SSE 18:26:24 31° E 18:30:02 11° NNE
SL-16 R/B 2.4 18:22:04 10° S 18:27:30 50° ESE 18:32:47 11° NNE
Cosmos 372 Rocket 3.9 18:29:35 10° NNW 18:34:43 87° ENE 18:39:48 10° SSE
BREEZE M DEB (TANK) 2.3 18:36:34 10° NW 18:38:28 29° NNE 18:38:28 29° NNE
Cosmos 2151 4.0 18:35:58 10° SSW 18:40:00 46° W 18:44:04 10° N
Cosmos 2297 3.8 18:34:33 10° NNW 18:40:08 52° ENE 18:45:41 10° SE
Meteor 1-28 Rocket 3.3 18:36:52 10° N 18:40:34 72° WNW 18:44:16 10° SSW
Cosmos 540 Rocket 4.4 18:36:27 10° SW 18:41:27 48° WNW 18:46:27 10° N
Aureole 1 Rocket 4.3 18:38:01 10° SSE 18:42:35 35° E 18:46:17 19° NE
FREGAT/IRIS 2.8 18:39:43 10° SSE 18:42:38 44° ENE 18:45:35 10° N
Cosmos 2279 Rocket 4.1 18:40:10 10° N 18:46:24 82° W 18:52:37 10° S
Lacrosse 5 rocket 1.1 18:42:57 10° NW 18:46:47 71° NE 18:49:00 25° SE
Timation 1 Rocket 4.2 18:50:45 10° NNW 18:56:48 80° ENE 19:02:48 10° SSE
USA 215 3.2 18:52:54 17° ESE 18:58:08 68° NE 19:04:38 10° NW
SL-19 R/B 4.3 18:53:45 10° SSE 18:59:35 59° ENE 19:05:07 10° N
Nadezhda 4 Rocket 3.9 18:58:11 10° S 19:04:24 80° E 19:10:44 10° N
Cosmos 1805 Rocket 4.1 19:00:36 10° SSW 19:04:58 59° W 19:09:24 10° N
Abrixas 4.3 19:04:15 10° W 19:06:32 24° NNW 19:06:32 24° NNW
FENGYUN 3A 3.6 19:03:27 10° SSE 19:08:40 58° ENE 19:13:57 10° N
H-2A ROCKET BODY 3.6 18:48:48 10° WSW 19:12:13 48° S 19:15:30 27° SE
Haruka 4.4 19:07:47 10° WSW 19:12:14 54° S 19:18:25 27° ESE
SJ-6B 3.3 19:09:37 10° S 19:13:37 63° WSW 19:17:44 10° NNW
FengYun 1-2 T 4.1 19:11:53 10° SSE 19:17:26 75° ENE 19:22:58 10° N
Cosmos 1184 Rocket 3.7 19:16:25 10° SSW 19:19:01 47° SW 19:19:01 47° SW
Spot 2 Rocket 3.3 19:14:50 10° SSE 19:19:50 70° ENE 19:24:52 10° N
Lacrosse 4 Rocket 3.9 19:18:46 10° N 19:18:56 11° N 19:18:56 11° N
Cosmos 1626 3.4 19:19:17 10° SSW 19:22:49 40° W 19:24:59 20° NNW
Cosmos 1092 Rocket 3.9 19:17:32 10° S 19:23:51 81° E 19:30:14 10° N
Sich 1 3.7 19:19:58 10° SSW 19:24:19 56° W 19:27:35 17° N
Cosmos 1900 4.4 19:25:05 10° NNW 19:30:02 74° WSW 19:31:43 42° S
Cosmos 1633 Rocket 3.7 19:26:11 10° SSW 19:30:30 54° W 19:32:44 26° NNW
Milstar 3 4.5 19:25:34 10° WSW 19:30:45 24° SSW 19:35:58 12° SSE
Cosmos 1603 3.7 19:26:20 10° S 19:31:21 59° SE 19:31:21 59° SE
Cosmos 1455 3.0 19:28:38 10° NNW 19:32:18 49° W 19:36:00 10° S
OTV 4 3.5 19:31:48 10° WSW 19:32:49 13° SW 19:32:49 13° SW
Cosmos 923 Rocket 4.1 19:34:39 10° SSW 19:39:05 65° S 19:39:05 65° S
USA 229 DEB 3.6 19:33:25 10° SSW 19:40:16 90° NW 19:42:09 52° NNE
USA 229 3.6 19:33:31 10° SSW 19:40:22 90° SE 19:42:12 53° NNE
Iridium 4 Rocket 3.5 19:36:30 10° SSW 19:41:04 60° W 19:41:10 60° W
Cosmos 2195 Rocket 4.3 19:43:52 10° S 19:49:30 77° SSE 19:49:30 77° SSE
Resurs 01 Rocket 3.0 19:55:49 35° NW 19:55:49 35° NW 19:58:49 10° NNW
ALOS 3.7 19:58:05 10° SSW 20:02:22 36° W 20:06:40 10° NNW
SL-16 R/B 4.3 20:07:29 10° WSW 20:11:52 23° NW 20:14:43 16° NNW
